EDT,Max TemperatureF,Mean TemperatureF,Min TemperatureF,Max Dew PointF,MeanDew PointF,Min DewpointF,Max Humidity, Mean Humidity, Min Humidity, Max Sea Level PressureIn, Mean Sea Level PressureIn, Min Sea Level PressureIn, Max VisibilityMiles, Mean VisibilityMiles, Min VisibilityMiles, Max Wind SpeedMPH, Mean Wind SpeedMPH, Max Gust SpeedMPH,PrecipitationIn, CloudCover, Events, WindDirDegrees
2012-10-1,66,50,34,52,43,34,100,83,42,29.97,29.92,29.86,10.0,8.6,0.2,5,0,,0.00,2,Fog,98
2012-10-2,70,59,48,56,49,44,100,76,41,29.94,29.89,29.84,10.0,10.0,10.0,9,2,,0.00,5,Rain,49
2012-10-3,66,61,56,64,59,56,100,95,79,30.07,29.99,29.92,10.0,7.8,1.0,9,2,,0.02,8,Rain,189
2012-10-4,76,65,54,62,54,47,100,76,36,30.06,30.03,29.97,10.0,10.0,10.0,16,6,24,0.03,5,Rain,206
2012-10-5,61,54,46,61,46,40,100,76,53,30.05,30.00,29.93,10.0,10.0,7.0,13,8,21,0.01,5,Rain,248
2012-10-6,51,46,40,43,36,31,100,73,48,30.10,29.99,29.91,10.0,10.0,10.0,20,8,26,0.00,7,,264
2012-10-7,50,42,33,40,34,29,100,77,45,30.13,30.09,30.06,10.0,10.0,10.0,8,2,,0.00,7,Rain,260
2012-10-8,55,40,26,41,30,26,100,69,32,30.19,30.14,30.08,10.0,10.0,10.0,14,4,20,0.00,1,,198
2012-10-9,61,48,34,37,34,30,85,55,34,30.10,29.97,29.80,10.0,10.0,10.0,22,8,29,0.00,0,,186
2012-10-10,54,45,34,44,34,23,100,71,45,30.12,29.91,29.75,10.0,10.0,7.0,22,11,30,0.09,6,Rain,263
2012-10-11,61,44,27,43,33,28,100,69,32,30.17,30.09,29.97,10.0,10.0,10.0,23,8,33,0.00,3,Rain,243
2012-10-12,50,40,29,38,31,23,100,74,35,30.43,30.34,30.17,10.0,10.0,10.0,10,4,,0.00,2,Rain,322
2012-10-13,58,42,27,59,41,28,100,100,95,30.39,30.15,29.86,10.0,8.9,4.0,14,3,20,0.45,5,Rain,168
2012-10-14,68,63,58,66,63,58,100,97,83,29.85,29.65,29.39,10.0,8.0,3.0,24,12,33,0.44,7,Rain,194
2012-10-15,58,52,45,58,46,41,100,94,84,29.92,29.72,29.41,10.0,9.5,3.0,21,13,30,0.06,8,Rain,279
2012-10-16,58,45,32,43,38,33,100,73,41,29.98,29.88,29.75,10.0,9.9,7.0,9,4,16,0.00,3,,200
2012-10-17,73,62,50,58,48,43,100,66,36,29.75,29.66,29.58,10.0,9.9,7.0,18,9,30,0.14,4,Rain,169
2012-10-18,59,54,48,58,47,33,100,78,39,29.66,29.53,29.40,10.0,9.8,7.0,18,10,26,0.31,5,Rain,166
2012-10-19,55,50,45,51,44,36,100,81,54,29.66,29.60,29.55,10.0,9.6,5.0,16,5,22,0.08,7,Rain,147
2012-10-20,52,48,44,50,47,45,100,99,89,29.89,29.69,29.57,10.0,9.1,3.0,13,3,16,0.19,6,Rain,259
2012-10-21,61,48,34,51,42,34,100,86,48,30.09,30.03,29.89,10.0,7.6,0.2,13,4,16,0.00,2,Fog,248
2012-10-22,72,53,34,59,47,35,100,80,48,30.09,30.04,29.97,10.0,9.3,7.0,9,2,,0.01,3,Rain,161
2012-10-23,63,60,57,64,61,57,100,100,99,30.00,29.96,29.91,10.0,5.7,0.8,6,3,,0.41,8,Rain,207
2012-10-24,77,68,59,66,61,59,100,87,56,30.03,30.00,29.96,10.0,6.3,0.2,10,2,,0.02,4,Fog-Rain,151
2012-10-25,77,64,51,62,56,51,100,71,43,29.99,29.91,29.82,10.0,9.9,7.0,23,8,34,0.00,0,,173
2012-10-26,70,54,38,56,42,35,100,79,57,30.24,30.12,29.82,10.0,9.9,5.0,18,10,26,0.01,4,Rain,305
2012-10-27,51,43,33,40,35,32,100,77,49,30.23,30.20,30.15,10.0,10.0,10.0,14,5,18,0.00,3,,359
2012-10-28,45,38,32,37,32,28,100,71,54,30.22,30.18,30.12,10.0,10.0,10.0,20,8,30,0.00,6,,1
2012-10-29,42,40,37,40,34,30,100,79,62,30.11,29.98,29.73,10.0,9.9,7.0,28,14,40,0.01,8,Rain,353
2012-10-30,42,38,35,42,39,36,100,100,100,29.72,29.51,29.45,10.0,3.3,1.8,25,17,36,0.13,8,Rain-Snow,339
2012-10-31,40,38,35,40,38,36,100,100,97,29.63,29.55,29.48,10.0,5.6,1.8,14,10,22,0.00,8,Rain,304